EN

Hourly Weather Marburg an der Lahn

Today, 21 January, Thursday

Time Temperature Precipitation Wind Pressure Humidity
00:00 +3°C° 0 mm 5 mps 730 mmHg 85%
01:00 +3°C° 0 mm 5 mps 729 mmHg 84%
02:00 +3°C° 0 mm 6 mps 729 mmHg 82%
03:00 +3°C° 0 mm 6 mps 728 mmHg 80%
04:00 +3°C° 0 mm 7 mps 727 mmHg 77%
05:00 +4°C° 0 mm 7 mps 727 mmHg 77%
06:00 +4°C° 0 mm 7 mps 726 mmHg 77%
07:00 +4°C° 0 mm 7 mps 726 mmHg 77%
08:00 +5°C° 0.5 mm 7 mps 727 mmHg 80%
09:00 +5°C° 0.5 mm 7 mps 727 mmHg 83%
10:00 +5°C° 0.5 mm 8 mps 728 mmHg 87%
11:00 +5°C° 0.3 mm 7 mps 728 mmHg 83%
12:00 +5°C° 0.3 mm 7 mps 728 mmHg 80%
13:00 +5°C° 0.3 mm 6 mps 729 mmHg 77%
14:00 +4°C° 0 mm 6 mps 728 mmHg 76%
15:00 +5°C° 0 mm 5 mps 728 mmHg 75%
16:00 +5°C° 0 mm 5 mps 728 mmHg 75%
17:00 +5°C° 0 mm 5 mps 728 mmHg 77%
18:00 +4°C° 0 mm 4 mps 727 mmHg 80%
19:00 +4°C° 0 mm 4 mps 727 mmHg 82%
20:00 +5°C° 0.6 mm 5 mps 726 mmHg 86%
21:00 +5°C° 0.6 mm 5 mps 726 mmHg 89%
22:00 +5°C° 0.6 mm 6 mps 725 mmHg 92%
23:00 +5°C° 0.5 mm 6 mps 724 mmHg 89%

Tomorrow, 22 January, Friday

Time Temperature Precipitation Wind Pressure Humidity
00:00 +7°C° 0.5 mm 6 mps 724 mmHg 85%
01:00 +6°C° 0.5 mm 7 mps 723 mmHg 81%
02:00 +6°C° 0.3 mm 7 mps 723 mmHg 82%
03:00 +6°C° 0.3 mm 7 mps 723 mmHg 82%
04:00 +6°C° 0.3 mm 8 mps 722 mmHg 83%
05:00 +5°C° 0.9 mm 7 mps 723 mmHg 85%
06:00 +5°C° 0.9 mm 7 mps 723 mmHg 87%
07:00 +5°C° 0.9 mm 7 mps 723 mmHg 89%
08:00 +5°C° 0.6 mm 5 mps 724 mmHg 89%
09:00 +4°C° 0.6 mm 4 mps 724 mmHg 89%
10:00 +3°C° 0.6 mm 3 mps 724 mmHg 90%
11:00 +4°C° 0.1 mm 2 mps 725 mmHg 87%
12:00 +5°C° 0.1 mm 2 mps 725 mmHg 84%
13:00 +6°C° 0.1 mm 1 mps 725 mmHg 80%
14:00 +6°C° 0.1 mm 1 mps 725 mmHg 82%
15:00 +6°C° 0.1 mm 1 mps 725 mmHg 84%
16:00 +5°C° 0.1 mm 1 mps 725 mmHg 85%
17:00 +4°C° 0.1 mm 0 mps 725 mmHg 87%
18:00 +3°C° 0.1 mm 0 mps 725 mmHg 89%
19:00 +3°C° 0.1 mm 0 mps 725 mmHg 92%
20:00 +3°C° 0.1 mm 0 mps 726 mmHg 91%
21:00 +4°C° 0.1 mm 1 mps 726 mmHg 91%
22:00 +4°C° 0.1 mm 1 mps 727 mmHg 91%
23:00 +4°C° 0.1 mm 1 mps 727 mmHg 91%

Day after tomorrow, 23 January, Saturday

Time Temperature Precipitation Wind Pressure Humidity
00:00 +3°C° 0.1 mm 1 mps 727 mmHg 91%
01:00 +3°C° 0.1 mm 1 mps 728 mmHg 92%
02:00 +3°C° 0 mm 1 mps 728 mmHg 92%
03:00 +1°C° 0 mm 0 mps 728 mmHg 92%
04:00 +1°C° 0 mm 0 mps 728 mmHg 93%
05:00 +2°C° 0 mm 1 mps 728 mmHg 93%
06:00 +1°C° 0 mm 1 mps 728 mmHg 93%
07:00 +1°C° 0 mm 1 mps 728 mmHg 94%
08:00 +1°C° 0 mm 1 mps 728 mmHg 92%
09:00 +2°C° 0 mm 1 mps 727 mmHg 90%
10:00 +2°C° 0 mm 1 mps 727 mmHg 88%
11:00 +3°C° 0 mm 1 mps 727 mmHg 85%
12:00 +3°C° 0 mm 2 mps 727 mmHg 83%
13:00 +3°C° 0 mm 2 mps 727 mmHg 80%
14:00 +3°C° 0 mm 2 mps 726 mmHg 82%
15:00 +3°C° 0 mm 2 mps 726 mmHg 83%
16:00 +3°C° 0 mm 2 mps 726 mmHg 84%
17:00 +3°C° 0 mm 1 mps 726 mmHg 87%
18:00 +3°C° 0 mm 1 mps 726 mmHg 90%
19:00 +2°C° 0 mm 1 mps 726 mmHg 94%
20:00 +2°C° 0 mm 1 mps 726 mmHg 94%
21:00 +2°C° 0 mm 1 mps 726 mmHg 95%
22:00 +2°C° 0 mm 1 mps 725 mmHg 95%
23:00 +2°C° 0 mm 1 mps 725 mmHg 95%

24 January, Sunday

Time Temperature Precipitation Wind Pressure Humidity
00:00 +1°C° 0 mm 1 mps 725 mmHg 95%
01:00 +1°C° 0 mm 1 mps 725 mmHg 95%
02:00 -1°C° 0.7 mm 2 mps 725 mmHg 96%
03:00 0°C° 0.7 mm 3 mps 725 mmHg 96%
04:00 0°C° 0.7 mm 3 mps 725 mmHg 97%
05:00 -2°C° 0.3 mm 4 mps 726 mmHg 93%
06:00 -2°C° 0.3 mm 5 mps 726 mmHg 90%
07:00 -3°C° 0.3 mm 6 mps 727 mmHg 86%
08:00 -3°C° 0.1 mm 6 mps 727 mmHg 85%
09:00 -3°C° 0.1 mm 6 mps 727 mmHg 85%
10:00 -3°C° 0.1 mm 6 mps 728 mmHg 84%
11:00 -3°C° 0.1 mm 6 mps 728 mmHg 82%
12:00 -1°C° 0.1 mm 5 mps 728 mmHg 80%
13:00 -1°C° 0.1 mm 5 mps 728 mmHg 78%
14:00 -1°C° 0 mm 5 mps 728 mmHg 77%
15:00 -1°C° 0 mm 4 mps 728 mmHg 77%
16:00 0°C° 0 mm 3 mps 728 mmHg 77%
17:00 -1°C° 0 mm 3 mps 729 mmHg 80%
18:00 -2°C° 0 mm 3 mps 729 mmHg 84%
19:00 -3°C° 0 mm 2 mps 729 mmHg 88%
20:00 -3°C° 0 mm 2 mps 729 mmHg 88%
21:00 -3°C° 0 mm 2 mps 729 mmHg 89%
22:00 -3°C° 0 mm 2 mps 729 mmHg 89%
23:00 -3°C° 0 mm 2 mps 730 mmHg 88%

25 January, Monday

Time Temperature Precipitation Wind Pressure Humidity
00:00 -3°C° 0 mm 2 mps 730 mmHg 87%
01:00 -4°C° 0 mm 3 mps 730 mmHg 86%
02:00 -4°C° 0 mm 3 mps 730 mmHg 85%
03:00 -3°C° 0 mm 4 mps 730 mmHg 84%
04:00 -3°C° 0 mm 4 mps 731 mmHg 83%
05:00 -3°C° 0 mm 4 mps 731 mmHg 84%
06:00 -3°C° 0 mm 4 mps 732 mmHg 84%
07:00 -3°C° 0 mm 4 mps 732 mmHg 85%
08:00 -2°C° 0 mm 3 mps 733 mmHg 84%
09:00 -2°C° 0 mm 3 mps 733 mmHg 82%
10:00 -2°C° 0 mm 3 mps 734 mmHg 81%
11:00 -1°C° 0 mm 3 mps 735 mmHg 77%
12:00 0°C° 0 mm 3 mps 735 mmHg 73%
13:00 +1°C° 0 mm 3 mps 735 mmHg 69%
14:00 +1°C° 0 mm 2 mps 736 mmHg 72%
15:00 +1°C° 0 mm 2 mps 736 mmHg 75%
16:00 +1°C° 0 mm 2 mps 736 mmHg 78%
17:00 -1°C° 0 mm 2 mps 736 mmHg 83%
18:00 -2°C° 0 mm 2 mps 736 mmHg 88%
19:00 0°C° 0 mm 1 mps 736 mmHg 94%
20:00 -2°C° 0 mm 2 mps 736 mmHg 94%
21:00 -2°C° 0 mm 2 mps 737 mmHg 95%
22:00 -2°C° 0 mm 2 mps 737 mmHg 96%
23:00 -2°C° 0.2 mm 2 mps 737 mmHg 96%

26 January, Tuesday

Time Temperature Precipitation Wind Pressure Humidity
00:00 -2°C° 0.2 mm 2 mps 737 mmHg 96%
01:00 -1°C° 0.2 mm 2 mps 737 mmHg 96%
02:00 -1°C° 0.1 mm 3 mps 737 mmHg 95%
03:00 -1°C° 0.1 mm 3 mps 737 mmHg 94%
04:00 -1°C° 0.1 mm 3 mps 737 mmHg 92%
05:00 -1°C° 0.1 mm 3 mps 737 mmHg 93%
06:00 -1°C° 0.1 mm 3 mps 737 mmHg 93%
07:00 -1°C° 0.1 mm 3 mps 737 mmHg 93%
08:00 -1°C° 0.1 mm 3 mps 738 mmHg 91%
09:00 0°C° 0.1 mm 3 mps 738 mmHg 90%
10:00 0°C° 0.1 mm 3 mps 738 mmHg 89%
11:00 0°C° 0 mm 4 mps 737 mmHg 86%
12:00 0°C° 0 mm 4 mps 737 mmHg 82%
13:00 +1°C° 0 mm 4 mps 737 mmHg 79%
14:00 +1°C° 0 mm 3 mps 736 mmHg 80%
15:00 +1°C° 0 mm 3 mps 736 mmHg 82%
16:00 +2°C° 0 mm 2 mps 735 mmHg 84%
17:00 +1°C° 0.2 mm 2 mps 734 mmHg 88%
18:00 +1°C° 0.2 mm 2 mps 733 mmHg 93%
19:00 -1°C° 0.2 mm 3 mps 732 mmHg 98%
20:00 0°C° 1.6 mm 3 mps 731 mmHg 98%
21:00 0°C° 1.6 mm 3 mps 730 mmHg 98%
22:00 0°C° 1.6 mm 3 mps 729 mmHg 98%
23:00 0°C° 0.9 mm 3 mps 729 mmHg 98%
Show more

We Need Your Consent

Meteoprog and our Service Providers may store and access personal data such as cookies, device identifiers or other similar technologies on your device and process such data to personalise content and ads, as well as provide social media features and to analyse the traffic.

  • Store and/or access information on your device

    Cookies, device identifiers or other information can be stored or accessed on your device for the purposes indicated above.

  • Personalised ads and content, ad and content measurement, audience insights, and products development

    Ads and content can be personalised based on a profile. More data can be added to better personalise ads and content. Ad and content performance can be measured. Insights about the audience who saw the ads and content can be derived. Such data can be used to develop or improve user’s experience, systems and software.

By clicking ‘I Agree’ you will allow the use of indicated cookies, device identifiers, web beacons or other similar technologies. Your settings can be changed in the browser on your device.

For certain purposes, legitimate interests may be relied on, rather than consent. You can read more about this in our Privacy and Cookie Policy.